Year,Month,Day,Hour,Minute,Value (Times are PST for temperature in C)
2009,05,19,00,00,8.90
2009,05,19,00,01,8.80
2009,05,19,00,02,8.80
2009,05,19,00,03,8.80
2009,05,19,00,04,8.70
2009,05,19,00,05,8.70
2009,05,19,00,06,8.70
2009,05,19,00,07,8.70
2009,05,19,00,08,8.60
2009,05,19,00,09,8.60
2009,05,19,00,10,8.50
2009,05,19,00,11,8.50
2009,05,19,00,12,8.40
2009,05,19,00,13,8.40
2009,05,19,00,14,8.30
2009,05,19,00,15,8.30
2009,05,19,00,16,8.20
2009,05,19,00,17,8.20
2009,05,19,00,18,8.20
2009,05,19,00,19,8.20
2009,05,19,00,20,8.10
2009,05,19,00,21,8.00
2009,05,19,00,22,8.00
2009,05,19,00,23,8.00
2009,05,19,00,24,7.90
2009,05,19,00,25,7.90
2009,05,19,00,26,7.90
2009,05,19,00,27,7.80
2009,05,19,00,28,7.80
2009,05,19,00,29,7.80
2009,05,19,00,30,7.80
2009,05,19,00,31,7.80
2009,05,19,00,32,7.80
2009,05,19,00,33,7.80
2009,05,19,00,34,7.80
2009,05,19,00,35,7.80
2009,05,19,00,36,7.80
2009,05,19,00,37,7.80
2009,05,19,00,38,7.80
2009,05,19,00,39,7.80
2009,05,19,00,40,7.80
2009,05,19,00,41,7.80
2009,05,19,00,42,7.80
2009,05,19,00,43,7.80
2009,05,19,00,44,7.90
2009,05,19,00,45,7.90
2009,05,19,00,46,7.90
2009,05,19,00,47,7.90
2009,05,19,00,48,7.90
2009,05,19,00,49,7.90
2009,05,19,00,50,7.90
2009,05,19,00,51,8.00
2009,05,19,00,52,8.00
2009,05,19,00,53,8.00
2009,05,19,00,54,8.10
2009,05,19,00,55,8.10
2009,05,19,00,56,8.10
2009,05,19,00,57,8.10
2009,05,19,00,58,8.10
2009,05,19,00,59,8.10
2009,05,19,01,00,8.10
2009,05,19,01,01,8.10
2009,05,19,01,02,8.00
2009,05,19,01,03,8.00
2009,05,19,01,04,8.00
2009,05,19,01,05,8.00
2009,05,19,01,06,7.90
2009,05,19,01,07,7.90
2009,05,19,01,08,7.80
2009,05,19,01,09,7.80
2009,05,19,01,10,7.80
2009,05,19,01,11,7.80
2009,05,19,01,12,7.80
2009,05,19,01,13,7.80
2009,05,19,01,14,7.80
2009,05,19,01,15,7.70
2009,05,19,01,16,7.70
2009,05,19,01,17,7.70
2009,05,19,01,18,7.70
2009,05,19,01,19,7.70
2009,05,19,01,20,7.70
2009,05,19,01,21,7.70
2009,05,19,01,22,7.70
2009,05,19,01,23,7.60
2009,05,19,01,24,7.60
2009,05,19,01,25,7.60
2009,05,19,01,26,7.60
2009,05,19,01,27,7.70
2009,05,19,01,28,7.70
2009,05,19,01,29,7.70
2009,05,19,01,30,7.70
2009,05,19,01,31,7.80
2009,05,19,01,32,7.80
2009,05,19,01,33,7.80
2009,05,19,01,34,7.80
2009,05,19,01,35,7.80
2009,05,19,01,36,7.80
2009,05,19,01,37,7.80
2009,05,19,01,38,7.80
2009,05,19,01,39,7.80
2009,05,19,01,40,7.80
2009,05,19,01,41,7.80
2009,05,19,01,42,7.80
2009,05,19,01,43,7.80
2009,05,19,01,44,7.80
2009,05,19,01,45,7.80
2009,05,19,01,46,7.70
2009,05,19,01,47,7.70
2009,05,19,01,48,7.70
2009,05,19,01,49,7.70
2009,05,19,01,50,7.70
2009,05,19,01,51,7.60
2009,05,19,01,52,7.60
2009,05,19,01,53,7.60
2009,05,19,01,54,7.60
2009,05,19,01,55,7.60
2009,05,19,01,56,7.60
2009,05,19,01,57,7.60
2009,05,19,01,58,7.50
2009,05,19,01,59,7.50
2009,05,19,02,00,7.40
2009,05,19,02,01,7.40
2009,05,19,02,02,7.40
2009,05,19,02,03,7.30
2009,05,19,02,04,7.30
2009,05,19,02,05,7.30
2009,05,19,02,06,7.30
2009,05,19,02,07,7.30
2009,05,19,02,08,7.20
2009,05,19,02,09,7.20
2009,05,19,02,10,7.10
2009,05,19,02,11,7.00
2009,05,19,02,12,7.00
2009,05,19,02,13,6.90
2009,05,19,02,14,6.90
2009,05,19,02,15,6.90
2009,05,19,02,16,6.90
2009,05,19,02,17,6.90
2009,05,19,02,18,6.90
2009,05,19,02,19,7.00
2009,05,19,02,20,7.00
2009,05,19,02,21,7.00
2009,05,19,02,22,7.00
2009,05,19,02,23,7.00
2009,05,19,02,24,7.00
2009,05,19,02,25,7.00
2009,05,19,02,26,7.00
2009,05,19,02,27,7.00
2009,05,19,02,28,7.00
2009,05,19,02,29,7.00
2009,05,19,02,30,7.00
2009,05,19,02,31,7.00
2009,05,19,02,32,7.00
2009,05,19,02,33,7.00
2009,05,19,02,34,7.00
2009,05,19,02,35,6.90
2009,05,19,02,36,6.90
2009,05,19,02,37,6.90
2009,05,19,02,38,6.90
2009,05,19,02,39,6.80
2009,05,19,02,40,6.80
2009,05,19,02,41,6.80
2009,05,19,02,42,6.70
2009,05,19,02,43,6.60
2009,05,19,02,44,6.60
2009,05,19,02,45,6.50
2009,05,19,02,46,6.40
2009,05,19,02,47,6.40
2009,05,19,02,48,6.30
2009,05,19,02,49,6.30
2009,05,19,02,50,6.20
2009,05,19,02,51,6.20
2009,05,19,02,52,6.20
2009,05,19,02,53,6.20
2009,05,19,02,54,6.20
2009,05,19,02,55,6.20
2009,05,19,02,56,6.20
2009,05,19,02,57,6.10
2009,05,19,02,58,6.10
2009,05,19,02,59,6.10
2009,05,19,03,00,6.00
2009,05,19,03,01,6.00
2009,05,19,03,02,6.00
2009,05,19,03,03,6.00
2009,05,19,03,04,6.00
2009,05,19,03,05,6.00
2009,05,19,03,06,6.10
2009,05,19,03,07,6.10
2009,05,19,03,08,6.10
2009,05,19,03,09,6.20
2009,05,19,03,10,6.20
2009,05,19,03,11,6.20
2009,05,19,03,12,6.20
2009,05,19,03,13,6.20
2009,05,19,03,14,6.20
2009,05,19,03,15,6.20
2009,05,19,03,16,6.20
2009,05,19,03,17,6.20
2009,05,19,03,18,6.20
2009,05,19,03,19,6.20
2009,05,19,03,20,6.30
2009,05,19,03,21,6.40
2009,05,19,03,22,6.40
2009,05,19,03,23,6.40
2009,05,19,03,24,6.40
2009,05,19,03,25,6.40
2009,05,19,03,26,6.40
2009,05,19,03,27,6.40
2009,05,19,03,28,6.40
2009,05,19,03,29,6.30
2009,05,19,03,30,6.30
2009,05,19,03,31,6.30
2009,05,19,03,32,6.30
2009,05,19,03,33,6.30
2009,05,19,03,34,6.30
2009,05,19,03,35,6.30
2009,05,19,03,36,6.20
2009,05,19,03,37,6.20
2009,05,19,03,38,6.20
2009,05,19,03,39,6.10
2009,05,19,03,40,6.10
2009,05,19,03,41,6.10
2009,05,19,03,42,6.00
2009,05,19,03,43,6.00
2009,05,19,03,44,6.00
2009,05,19,03,45,6.00
2009,05,19,03,46,5.90
2009,05,19,03,47,5.90
2009,05,19,03,48,5.80
2009,05,19,03,49,5.80
2009,05,19,03,50,5.80
2009,05,19,03,51,5.70
2009,05,19,03,52,5.80
2009,05,19,03,53,5.90
2009,05,19,03,54,6.00
2009,05,19,03,55,6.10
2009,05,19,03,56,6.10
2009,05,19,03,57,6.20
2009,05,19,03,58,6.20
2009,05,19,03,59,6.20
2009,05,19,04,00,6.20
2009,05,19,04,01,6.20
2009,05,19,04,02,6.20
2009,05,19,04,03,6.20
2009,05,19,04,05,6.20
2009,05,19,04,06,6.20
2009,05,19,04,07,6.00
2009,05,19,04,08,5.90
2009,05,19,04,09,5.80
2009,05,19,04,10,5.80
2009,05,19,04,11,5.70
2009,05,19,04,12,5.70
2009,05,19,04,13,5.70
2009,05,19,04,14,5.60
2009,05,19,04,15,5.60
2009,05,19,04,16,5.50
2009,05,19,04,17,5.50
2009,05,19,04,18,5.50
2009,05,19,04,19,5.50
2009,05,19,04,20,5.50
2009,05,19,04,21,5.40
2009,05,19,04,22,5.40
2009,05,19,04,23,5.40
2009,05,19,04,24,5.30
2009,05,19,04,25,5.30
2009,05,19,04,26,5.30
2009,05,19,04,27,5.30
2009,05,19,04,28,5.30
2009,05,19,04,29,5.30
2009,05,19,04,30,5.20
2009,05,19,04,31,5.20
2009,05,19,04,32,5.10
2009,05,19,04,33,5.10
2009,05,19,04,34,5.00
2009,05,19,04,35,4.90
2009,05,19,04,36,4.90
2009,05,19,04,37,4.90
2009,05,19,04,38,4.90
2009,05,19,04,39,4.90
2009,05,19,04,40,4.90
2009,05,19,04,41,4.90
2009,05,19,04,42,4.90
2009,05,19,04,43,4.80
2009,05,19,04,44,4.80
2009,05,19,04,45,4.90
2009,05,19,04,46,4.90
2009,05,19,04,47,4.90
2009,05,19,04,48,4.90
2009,05,19,04,49,4.90
2009,05,19,04,50,5.00
2009,05,19,04,51,5.10
2009,05,19,04,52,5.10
2009,05,19,04,53,5.10
2009,05,19,04,54,5.00
2009,05,19,04,55,5.10
2009,05,19,04,56,5.10
2009,05,19,04,57,5.10
2009,05,19,04,58,5.10
2009,05,19,04,59,5.10
2009,05,19,05,00,5.10
2009,05,19,05,01,5.10
2009,05,19,05,02,4.90
2009,05,19,05,03,4.90
2009,05,19,05,04,4.90
2009,05,19,05,05,4.90
2009,05,19,05,06,5.00
2009,05,19,05,07,5.10
2009,05,19,05,08,5.10
2009,05,19,05,09,5.10
2009,05,19,05,10,5.10
2009,05,19,05,11,5.10
2009,05,19,05,12,5.10
2009,05,19,05,13,5.10
2009,05,19,05,14,5.20
2009,05,19,05,15,5.20
2009,05,19,05,16,5.20
2009,05,19,05,17,5.10
2009,05,19,05,18,5.10
2009,05,19,05,19,5.10
2009,05,19,05,20,5.10
2009,05,19,05,21,5.10
2009,05,19,05,22,5.10
2009,05,19,05,23,5.10
2009,05,19,05,24,5.10
2009,05,19,05,25,5.10
2009,05,19,05,26,5.20
2009,05,19,05,27,5.20
2009,05,19,05,28,5.30
2009,05,19,05,29,5.30
2009,05,19,05,30,5.30
2009,05,19,05,31,5.30
2009,05,19,05,32,5.30
2009,05,19,05,33,5.30
2009,05,19,05,34,5.30
2009,05,19,05,35,5.30
2009,05,19,05,36,5.30
2009,05,19,05,37,5.30
2009,05,19,05,38,5.30
2009,05,19,05,39,5.30
2009,05,19,05,40,5.30
2009,05,19,05,41,5.30
2009,05,19,05,42,5.30
2009,05,19,05,43,5.40
2009,05,19,05,44,5.40
2009,05,19,05,45,5.40
2009,05,19,05,46,5.50
2009,05,19,05,47,5.50
2009,05,19,05,48,5.50
2009,05,19,05,49,5.60
2009,05,19,05,50,5.60
2009,05,19,05,51,5.60
2009,05,19,05,52,5.60
2009,05,19,05,53,5.60
2009,05,19,05,54,5.60
2009,05,19,05,55,5.60
2009,05,19,05,56,5.60
2009,05,19,05,57,5.60
2009,05,19,05,58,5.60
2009,05,19,05,59,5.60
2009,05,19,06,00,5.60
2009,05,19,06,01,5.60
2009,05,19,06,02,5.60
2009,05,19,06,03,5.60
2009,05,19,06,04,5.60
2009,05,19,06,05,5.50
2009,05,19,06,06,5.50
2009,05,19,06,07,5.50
2009,05,19,06,08,5.50
2009,05,19,06,09,5.50
2009,05,19,06,10,5.40
2009,05,19,06,11,5.40
2009,05,19,06,12,5.40
2009,05,19,06,13,5.40
2009,05,19,06,14,5.30
2009,05,19,06,15,5.30
2009,05,19,06,16,5.30
2009,05,19,06,17,5.30
2009,05,19,06,18,5.30
2009,05,19,06,19,5.20
2009,05,19,06,20,5.20
2009,05,19,06,21,5.20
2009,05,19,06,22,5.20
2009,05,19,06,23,5.20
2009,05,19,06,24,5.20
2009,05,19,06,25,5.20
2009,05,19,06,26,5.20
2009,05,19,06,27,5.20
2009,05,19,06,28,5.30
2009,05,19,06,29,5.30
2009,05,19,06,30,5.30
2009,05,19,06,31,5.30
2009,05,19,06,32,5.30
2009,05,19,06,33,5.30
2009,05,19,06,34,5.40
2009,05,19,06,35,5.50
2009,05,19,06,36,5.50
2009,05,19,06,37,5.60
2009,05,19,06,38,5.60
2009,05,19,06,39,5.70
2009,05,19,06,40,5.70
2009,05,19,06,41,5.70
2009,05,19,06,42,5.70
2009,05,19,06,43,5.70
2009,05,19,06,44,5.70
2009,05,19,06,45,5.70
2009,05,19,06,46,5.70
2009,05,19,06,47,5.80
2009,05,19,06,48,5.90
2009,05,19,06,49,5.90
2009,05,19,06,50,6.00
2009,05,19,06,51,6.00
2009,05,19,06,52,6.00
2009,05,19,06,53,6.10
2009,05,19,06,54,6.10
2009,05,19,06,55,6.20
2009,05,19,06,56,6.20
2009,05,19,06,57,6.30
2009,05,19,06,58,6.30
2009,05,19,06,59,6.30
2009,05,19,07,00,6.30
2009,05,19,07,01,6.30
2009,05,19,07,02,6.20
2009,05,19,07,03,6.20
2009,05,19,07,04,6.20
2009,05,19,07,05,6.20
2009,05,19,07,06,6.20
2009,05,19,07,07,6.20
2009,05,19,07,08,6.20
2009,05,19,07,09,6.30
2009,05,19,07,10,6.30
2009,05,19,07,11,6.40
2009,05,19,07,12,6.40
2009,05,19,07,13,6.40
2009,05,19,07,14,6.40
2009,05,19,07,15,6.40
2009,05,19,07,16,6.60
2009,05,19,07,17,6.60
2009,05,19,07,18,6.60
2009,05,19,07,19,6.60
2009,05,19,07,20,6.60
2009,05,19,07,21,6.60
2009,05,19,07,22,6.60
2009,05,19,07,23,6.60
2009,05,19,07,24,6.70
2009,05,19,07,25,6.80
2009,05,19,07,26,6.80
2009,05,19,07,27,6.80
2009,05,19,07,28,6.90
2009,05,19,07,29,6.90
2009,05,19,07,30,7.00
2009,05,19,07,31,7.00
2009,05,19,07,32,7.00
2009,05,19,07,33,7.10
2009,05,19,07,34,7.20
2009,05,19,07,35,7.30
2009,05,19,07,36,7.40
2009,05,19,07,37,7.50
2009,05,19,07,38,7.70
2009,05,19,07,39,7.80
2009,05,19,07,40,7.90
2009,05,19,07,41,7.90
2009,05,19,07,42,8.10
2009,05,19,07,43,8.20
2009,05,19,07,44,8.30
2009,05,19,07,45,8.40
2009,05,19,07,46,8.50
2009,05,19,07,47,8.60
2009,05,19,07,48,8.70
2009,05,19,07,49,8.80
2009,05,19,07,50,8.90
2009,05,19,07,51,9.00
2009,05,19,07,52,9.10
2009,05,19,07,53,9.20
2009,05,19,07,54,9.30
2009,05,19,07,55,9.40
2009,05,19,07,56,9.50
2009,05,19,07,57,9.50
2009,05,19,07,58,9.60
2009,05,19,07,59,9.70
2009,05,19,08,00,9.70
2009,05,19,08,01,9.70
2009,05,19,08,02,9.80
2009,05,19,08,03,9.80
2009,05,19,08,04,9.90
2009,05,19,08,05,9.90
2009,05,19,08,06,10.00
2009,05,19,08,07,10.10
2009,05,19,08,08,10.10
2009,05,19,08,09,10.10
2009,05,19,08,10,10.20
2009,05,19,08,11,10.20
2009,05,19,08,12,10.30
2009,05,19,08,13,10.30
2009,05,19,08,14,10.40
2009,05,19,08,15,10.40
2009,05,19,08,16,10.50
2009,05,19,08,17,10.60
2009,05,19,08,18,10.60
2009,05,19,08,19,10.60
2009,05,19,08,20,10.60
2009,05,19,08,21,10.60
2009,05,19,08,22,10.60
2009,05,19,08,23,10.70
2009,05,19,08,24,10.70
2009,05,19,08,25,10.70
2009,05,19,08,26,10.70
2009,05,19,08,27,10.80
2009,05,19,08,28,10.80
2009,05,19,08,29,10.80
2009,05,19,08,30,10.90
2009,05,19,08,31,10.90
2009,05,19,08,32,10.90
2009,05,19,08,33,10.90
2009,05,19,08,34,10.90
2009,05,19,08,35,10.90
2009,05,19,08,36,10.90
2009,05,19,08,37,10.90
2009,05,19,08,38,10.90
2009,05,19,08,39,10.90
2009,05,19,08,40,10.90
2009,05,19,08,41,10.90
2009,05,19,08,42,10.90
2009,05,19,08,43,11.10
2009,05,19,08,44,11.10
2009,05,19,08,45,11.20
2009,05,19,08,46,11.20
2009,05,19,08,47,11.30
2009,05,19,08,48,11.30
2009,05,19,08,49,11.30
2009,05,19,08,50,11.30
2009,05,19,08,51,11.30
2009,05,19,08,52,11.40
2009,05,19,08,53,11.40
2009,05,19,08,54,11.40
2009,05,19,08,55,11.50
2009,05,19,08,56,11.60
2009,05,19,08,57,11.60
2009,05,19,08,58,11.70
2009,05,19,08,59,11.70
2009,05,19,09,00,11.80
2009,05,19,09,01,11.80
2009,05,19,09,02,11.90
2009,05,19,09,03,11.90
2009,05,19,09,04,12.00
2009,05,19,09,05,12.00
2009,05,19,09,06,12.10
2009,05,19,09,07,12.10
2009,05,19,09,08,12.10
2009,05,19,09,09,12.00
2009,05,19,09,10,12.00
2009,05,19,09,11,12.00
2009,05,19,09,12,12.00
2009,05,19,09,13,12.00
2009,05,19,09,14,12.10
2009,05,19,09,15,12.10
2009,05,19,09,16,12.20
2009,05,19,09,17,12.30
2009,05,19,09,18,12.30
2009,05,19,09,19,12.30
2009,05,19,09,20,12.40
2009,05,19,09,21,12.40
2009,05,19,09,22,12.40
2009,05,19,09,23,12.50
2009,05,19,09,24,12.50
2009,05,19,09,25,12.50
2009,05,19,09,26,12.50
2009,05,19,09,27,12.60
2009,05,19,09,28,12.50
2009,05,19,09,29,12.50
2009,05,19,09,30,12.50
2009,05,19,09,31,12.60
2009,05,19,09,32,12.50
2009,05,19,09,33,12.50
2009,05,19,09,34,12.60
2009,05,19,09,35,12.60
2009,05,19,09,36,12.70
2009,05,19,09,37,12.80
2009,05,19,09,38,13.00
2009,05,19,09,39,13.10
2009,05,19,09,40,13.20
2009,05,19,09,41,13.30
2009,05,19,09,42,13.50
2009,05,19,09,43,13.60
2009,05,19,09,44,13.80
2009,05,19,09,45,13.90
2009,05,19,09,46,13.90
2009,05,19,09,47,14.00
2009,05,19,09,48,14.10
2009,05,19,09,49,14.10
2009,05,19,09,50,14.20
2009,05,19,09,51,14.20
2009,05,19,09,52,14.20
2009,05,19,09,53,14.20
2009,05,19,09,54,14.20
2009,05,19,09,55,14.20
2009,05,19,09,56,14.10
2009,05,19,09,57,14.10
2009,05,19,09,58,14.00
2009,05,19,09,59,13.90
2009,05,19,10,00,13.80
2009,05,19,10,01,13.80
2009,05,19,10,02,13.70
2009,05,19,10,03,13.60
2009,05,19,10,04,13.50
2009,05,19,10,05,13.40
2009,05,19,10,06,13.30
2009,05,19,10,07,13.20
2009,05,19,10,08,13.10
2009,05,19,10,09,13.00
2009,05,19,10,10,12.90
2009,05,19,10,11,12.80
2009,05,19,10,12,12.60
2009,05,19,10,13,12.60
2009,05,19,10,14,12.50
2009,05,19,10,15,12.50
2009,05,19,10,16,12.40
2009,05,19,10,17,12.50
2009,05,19,10,18,12.50
2009,05,19,10,19,12.50
2009,05,19,10,20,12.50
2009,05,19,10,21,12.50
2009,05,19,10,22,12.60
2009,05,19,10,23,12.60
2009,05,19,10,24,12.70
2009,05,19,10,25,12.80
2009,05,19,10,26,12.90
2009,05,19,10,27,13.00
2009,05,19,10,28,13.00
2009,05,19,10,29,13.10
2009,05,19,10,30,13.10
2009,05,19,10,31,13.00
2009,05,19,10,32,13.00
2009,05,19,10,33,12.90
2009,05,19,10,34,12.80
2009,05,19,10,35,12.80
2009,05,19,10,36,12.80
2009,05,19,10,37,12.80
2009,05,19,10,38,12.80
2009,05,19,10,39,12.80
2009,05,19,10,40,12.80
2009,05,19,10,41,12.80
2009,05,19,10,42,12.80
2009,05,19,10,43,12.80
2009,05,19,10,44,12.80
2009,05,19,10,45,12.80
2009,05,19,10,46,12.70
2009,05,19,10,47,12.70
2009,05,19,10,48,12.70
2009,05,19,10,49,12.70
2009,05,19,10,50,12.70
2009,05,19,10,51,12.80
2009,05,19,10,52,12.80
2009,05,19,10,53,12.80
2009,05,19,10,54,12.80
2009,05,19,10,55,12.80
2009,05,19,10,56,12.80
2009,05,19,10,57,12.80
2009,05,19,10,58,12.90
2009,05,19,10,59,13.00
2009,05,19,11,00,13.10
2009,05,19,11,01,13.20
2009,05,19,11,02,13.30
2009,05,19,11,03,13.30
2009,05,19,11,04,13.30
2009,05,19,11,05,13.40
2009,05,19,11,06,13.60
2009,05,19,11,07,13.70
2009,05,19,11,08,13.80
2009,05,19,11,09,13.90
2009,05,19,11,10,13.90
2009,05,19,11,11,14.10
2009,05,19,11,12,14.20
2009,05,19,11,13,14.20
2009,05,19,11,14,14.30
2009,05,19,11,15,14.30
2009,05,19,11,16,14.20
2009,05,19,11,17,14.20
2009,05,19,11,18,14.20
2009,05,19,11,19,14.20
2009,05,19,11,20,14.10
2009,05,19,11,21,14.10
2009,05,19,11,22,14.00
2009,05,19,11,23,13.90
2009,05,19,11,24,13.80
2009,05,19,11,25,13.80
2009,05,19,11,26,13.70
2009,05,19,11,27,13.60
2009,05,19,11,28,13.50
2009,05,19,11,29,13.30
2009,05,19,11,30,13.10
2009,05,19,11,31,12.90
2009,05,19,11,32,12.80
2009,05,19,11,33,12.70
2009,05,19,11,34,12.60
2009,05,19,11,35,12.50
2009,05,19,11,36,12.40
2009,05,19,11,37,12.40
2009,05,19,11,38,12.40
2009,05,19,11,39,12.40
2009,05,19,11,40,12.40
2009,05,19,11,41,12.40
2009,05,19,11,42,12.50
2009,05,19,11,43,12.50
2009,05,19,11,44,12.60
2009,05,19,11,45,12.80
2009,05,19,11,46,13.00
2009,05,19,11,47,13.20
2009,05,19,11,48,13.40
2009,05,19,11,49,13.60
2009,05,19,11,50,13.80
2009,05,19,11,51,13.90
2009,05,19,11,52,14.10
2009,05,19,11,53,14.20
2009,05,19,11,54,14.30
2009,05,19,11,55,14.40
2009,05,19,11,56,14.40
2009,05,19,11,57,14.30
2009,05,19,11,58,14.10
2009,05,19,11,59,13.90
2009,05,19,12,00,13.70
2009,05,19,12,01,13.50
2009,05,19,12,02,13.30
2009,05,19,12,03,13.10
2009,05,19,12,04,13.10
2009,05,19,12,05,13.00
2009,05,19,12,06,12.90
2009,05,19,12,07,12.80
2009,05,19,12,08,12.80
2009,05,19,12,09,12.80
2009,05,19,12,10,12.80
2009,05,19,12,11,12.80
2009,05,19,12,12,12.80
2009,05,19,12,13,12.70
2009,05,19,12,14,12.60
2009,05,19,12,15,12.50
2009,05,19,12,16,12.50
2009,05,19,12,17,12.40
2009,05,19,12,18,12.30
2009,05,19,12,19,12.30
2009,05,19,12,20,12.10
2009,05,19,12,21,12.00
2009,05,19,12,22,11.90
2009,05,19,12,23,11.80
2009,05,19,12,24,11.70
2009,05,19,12,25,11.60
2009,05,19,12,26,11.40
2009,05,19,12,27,11.30
2009,05,19,12,28,11.30
2009,05,19,12,29,11.30
2009,05,19,12,30,11.30
2009,05,19,12,31,11.30
2009,05,19,12,32,11.30
2009,05,19,12,33,11.30
2009,05,19,12,34,11.30
2009,05,19,12,35,11.30
2009,05,19,12,36,11.20
2009,05,19,12,37,11.20
2009,05,19,12,38,11.20
2009,05,19,12,39,11.30
2009,05,19,12,40,11.40
2009,05,19,12,41,11.50
2009,05,19,12,42,11.70
2009,05,19,12,43,11.80
2009,05,19,12,44,11.90
2009,05,19,12,45,12.20
2009,05,19,12,46,12.50
2009,05,19,12,47,12.70
2009,05,19,12,48,13.00
2009,05,19,12,49,13.20
2009,05,19,12,50,13.20
2009,05,19,12,51,13.20
2009,05,19,12,52,13.10
2009,05,19,12,53,13.10
2009,05,19,12,54,13.00
2009,05,19,12,55,12.90
2009,05,19,12,56,12.90
2009,05,19,12,57,12.90
2009,05,19,12,58,12.90
2009,05,19,12,59,12.90
2009,05,19,13,00,12.80
2009,05,19,13,01,12.70
2009,05,19,13,02,12.50
2009,05,19,13,03,12.40
2009,05,19,13,04,12.30
2009,05,19,13,05,12.20
2009,05,19,13,06,12.10
2009,05,19,13,07,12.00
2009,05,19,13,08,11.90
2009,05,19,13,09,11.80
2009,05,19,13,10,11.80
2009,05,19,13,11,11.70
2009,05,19,13,12,11.60
2009,05,19,13,13,11.50
2009,05,19,13,14,11.40
2009,05,19,13,15,11.30
2009,05,19,13,16,11.20
2009,05,19,13,17,11.10
2009,05,19,13,18,11.10
2009,05,19,13,19,11.10
2009,05,19,13,20,11.10
2009,05,19,13,21,11.10
2009,05,19,13,22,11.10
2009,05,19,13,23,11.10
2009,05,19,13,24,11.10
2009,05,19,13,25,11.10
2009,05,19,13,26,11.10
2009,05,19,13,27,11.10
2009,05,19,13,28,11.10
2009,05,19,13,29,11.10
2009,05,19,13,30,11.10
2009,05,19,13,31,11.10
2009,05,19,13,32,11.20
2009,05,19,13,33,11.20
2009,05,19,13,34,11.30
2009,05,19,13,35,11.40
2009,05,19,13,36,11.60
2009,05,19,13,37,11.70
2009,05,19,13,38,11.70
2009,05,19,13,39,11.70
2009,05,19,13,40,11.70
2009,05,19,13,41,11.70
2009,05,19,13,42,11.70
2009,05,19,13,43,11.70
2009,05,19,13,44,11.70
2009,05,19,13,45,11.70
2009,05,19,13,46,11.70
2009,05,19,13,47,11.60
2009,05,19,13,48,11.60
2009,05,19,13,49,11.60
2009,05,19,13,50,11.40
2009,05,19,13,51,11.40
2009,05,19,13,52,11.40
2009,05,19,13,53,11.40
2009,05,19,13,54,11.40
2009,05,19,13,55,11.40
2009,05,19,13,56,11.30
2009,05,19,13,57,11.20
2009,05,19,13,58,11.10
2009,05,19,13,59,11.10
2009,05,19,14,00,11.20
2009,05,19,14,01,11.20
2009,05,19,14,02,11.30
2009,05,19,14,03,11.30
2009,05,19,14,04,11.40
2009,05,19,14,05,11.50
2009,05,19,14,06,11.60
2009,05,19,14,07,11.60
2009,05,19,14,08,11.70
2009,05,19,14,09,11.80
2009,05,19,14,10,11.80
2009,05,19,14,11,11.90
2009,05,19,14,12,11.90
2009,05,19,14,13,11.90
2009,05,19,14,14,11.80
2009,05,19,14,15,11.80
2009,05,19,14,16,11.90
2009,05,19,14,17,12.00
2009,05,19,14,18,12.00
2009,05,19,14,19,12.00
2009,05,19,14,20,12.00
2009,05,19,14,21,12.10
2009,05,19,14,22,12.30
2009,05,19,14,23,12.40
2009,05,19,14,24,12.50
2009,05,19,14,25,12.70
2009,05,19,14,26,12.70
2009,05,19,14,27,12.80
2009,05,19,14,28,12.80
2009,05,19,14,29,12.80
2009,05,19,14,30,12.80
2009,05,19,14,31,12.80
2009,05,19,14,32,12.90
2009,05,19,14,33,13.00
2009,05,19,14,34,13.00
2009,05,19,14,35,13.00
2009,05,19,14,36,13.00
2009,05,19,14,37,13.00
2009,05,19,14,38,13.10
2009,05,19,14,39,13.10
2009,05,19,14,40,13.10
2009,05,19,14,41,13.20
2009,05,19,14,42,13.20
2009,05,19,14,43,13.30
2009,05,19,14,44,13.30
2009,05,19,14,45,13.30
2009,05,19,14,46,13.20
2009,05,19,14,47,13.10
2009,05,19,14,48,13.20
2009,05,19,14,49,13.10
2009,05,19,14,50,13.10
2009,05,19,14,51,13.00
2009,05,19,14,52,12.90
2009,05,19,14,53,12.90
2009,05,19,14,54,12.80
2009,05,19,14,55,12.80
2009,05,19,14,56,12.90
2009,05,19,14,57,12.90
2009,05,19,14,58,13.00
2009,05,19,14,59,13.00
2009,05,19,15,00,13.00
2009,05,19,15,01,13.10
2009,05,19,15,02,13.10
2009,05,19,15,03,13.20
2009,05,19,15,04,13.20
2009,05,19,15,05,13.30
2009,05,19,15,06,13.30
2009,05,19,15,07,13.40
2009,05,19,15,08,13.40
2009,05,19,15,09,13.40
2009,05,19,15,10,13.30
2009,05,19,15,11,13.30
2009,05,19,15,12,13.20
2009,05,19,15,13,13.10
2009,05,19,15,14,13.10
2009,05,19,15,15,13.10
2009,05,19,15,16,13.10
2009,05,19,15,17,13.00
2009,05,19,15,18,13.00
2009,05,19,15,19,13.00
2009,05,19,15,20,12.90
2009,05,19,15,21,12.80
2009,05,19,15,22,12.80
2009,05,19,15,23,12.80
2009,05,19,15,24,12.70
2009,05,19,15,25,12.70
2009,05,19,15,26,12.70
2009,05,19,15,27,12.70
2009,05,19,15,28,12.70
2009,05,19,15,29,12.70
2009,05,19,15,30,12.60
2009,05,19,15,31,12.40
2009,05,19,15,32,12.30
2009,05,19,15,33,12.10
2009,05,19,15,34,12.00
2009,05,19,15,35,11.90
2009,05,19,15,36,11.80
2009,05,19,15,37,11.80
2009,05,19,15,38,11.90
2009,05,19,15,39,12.00
2009,05,19,15,40,12.10
2009,05,19,15,41,12.20
2009,05,19,15,42,12.30
2009,05,19,15,43,12.30
2009,05,19,15,44,12.40
2009,05,19,15,45,12.50
2009,05,19,15,46,12.60
2009,05,19,15,47,12.60
2009,05,19,15,48,12.60
2009,05,19,15,49,12.70
2009,05,19,15,50,12.70
2009,05,19,15,51,12.80
2009,05,19,15,52,12.80
2009,05,19,15,53,12.90
2009,05,19,15,54,12.80
2009,05,19,15,55,12.80
2009,05,19,15,56,12.70
2009,05,19,15,57,12.60
2009,05,19,15,58,12.50
2009,05,19,15,59,12.50
2009,05,19,16,00,12.50
2009,05,19,16,01,12.50
2009,05,19,16,02,12.50
2009,05,19,16,03,12.60
2009,05,19,16,04,12.50
2009,05,19,16,05,12.50
2009,05,19,16,06,12.60
2009,05,19,16,07,12.60
2009,05,19,16,08,12.60
2009,05,19,16,09,12.60
2009,05,19,16,10,12.60
2009,05,19,16,11,12.60
2009,05,19,16,12,12.60
2009,05,19,16,13,12.60
2009,05,19,16,14,12.60
2009,05,19,16,15,12.60
2009,05,19,16,16,12.50
2009,05,19,16,17,12.40
2009,05,19,16,18,12.30
2009,05,19,16,19,12.10
2009,05,19,16,20,11.90
2009,05,19,16,21,11.70
2009,05,19,16,22,11.60
2009,05,19,16,23,11.60
2009,05,19,16,24,11.50
2009,05,19,16,25,11.40
2009,05,19,16,26,11.30
2009,05,19,16,27,11.30
2009,05,19,16,28,11.30
2009,05,19,16,29,11.20
2009,05,19,16,30,11.20
2009,05,19,16,31,11.10
2009,05,19,16,32,11.10
2009,05,19,16,33,11.10
2009,05,19,16,34,11.00
2009,05,19,16,35,10.90
2009,05,19,16,36,10.90
2009,05,19,16,37,10.90
2009,05,19,16,38,10.90
2009,05,19,16,39,10.90
2009,05,19,16,40,10.90
2009,05,19,16,41,10.90
2009,05,19,16,42,10.90
2009,05,19,16,43,10.90
2009,05,19,16,44,10.90
2009,05,19,16,45,10.90
2009,05,19,16,46,11.00
2009,05,19,16,47,11.10
2009,05,19,16,48,11.10
2009,05,19,16,49,11.10
2009,05,19,16,50,11.20
2009,05,19,16,51,11.20
2009,05,19,16,52,11.30
2009,05,19,16,53,11.30
2009,05,19,16,54,11.20
2009,05,19,16,55,11.20
2009,05,19,16,56,11.20
2009,05,19,16,57,11.20
2009,05,19,16,58,11.20
2009,05,19,16,59,11.20
2009,05,19,17,00,11.20
2009,05,19,17,01,11.20
2009,05,19,17,02,11.10
2009,05,19,17,03,11.10
2009,05,19,17,04,11.10
2009,05,19,17,05,11.10
2009,05,19,17,06,11.10
2009,05,19,17,07,11.10
2009,05,19,17,08,11.10
2009,05,19,17,09,11.10
2009,05,19,17,10,11.10
2009,05,19,17,11,11.20
2009,05,19,17,12,11.30
2009,05,19,17,13,11.30
2009,05,19,17,14,11.30
2009,05,19,17,15,11.20
2009,05,19,17,16,11.10
2009,05,19,17,17,11.10
2009,05,19,17,18,11.10
2009,05,19,17,19,11.20
2009,05,19,17,20,11.20
2009,05,19,17,21,11.20
2009,05,19,17,22,11.10
2009,05,19,17,23,11.10
2009,05,19,17,24,11.10
2009,05,19,17,25,11.10
2009,05,19,17,26,11.10
2009,05,19,17,27,11.00
2009,05,19,17,28,10.90
2009,05,19,17,29,10.90
2009,05,19,17,30,10.90
2009,05,19,17,31,10.90
2009,05,19,17,32,10.80
2009,05,19,17,33,10.80
2009,05,19,17,34,10.80
2009,05,19,17,35,10.80
2009,05,19,17,36,10.90
2009,05,19,17,37,10.90
2009,05,19,17,38,11.10
2009,05,19,17,39,11.10
2009,05,19,17,40,11.10
2009,05,19,17,41,11.10